Hourly Weather Bolshoy Serdezh

Today, 27 July, Tuesday

Time Temperature Precipitation Wind Pressure Humidity
00:00 +16°C° 0 mm 5 mps 751 mmHg 58%
01:00 +17°C° 0 mm 4 mps 750 mmHg 62%
02:00 +15°C° 0 mm 4 mps 750 mmHg 65%
03:00 +15°C° 0 mm 4 mps 750 mmHg 69%
04:00 +15°C° 0 mm 4 mps 750 mmHg 71%
05:00 +15°C° 0 mm 4 mps 750 mmHg 73%
06:00 +17°C° 0 mm 4 mps 750 mmHg 75%
07:00 +18°C° 0 mm 4 mps 751 mmHg 67%
08:00 +19°C° 0 mm 4 mps 751 mmHg 59%
09:00 +20°C° 0 mm 4 mps 751 mmHg 51%
10:00 +21°C° 0 mm 4 mps 751 mmHg 48%
11:00 +22°C° 0 mm 5 mps 751 mmHg 45%
12:00 +22°C° 0 mm 5 mps 751 mmHg 42%
13:00 +23°C° 0 mm 5 mps 750 mmHg 40%
14:00 +23°C° 0 mm 5 mps 750 mmHg 38%
15:00 +24°C° 0 mm 6 mps 750 mmHg 36%
16:00 +23°C° 0 mm 5 mps 750 mmHg 39%
17:00 +22°C° 0 mm 5 mps 749 mmHg 42%
18:00 +21°C° 0 mm 4 mps 749 mmHg 45%
19:00 +19°C° 0 mm 3 mps 749 mmHg 50%
20:00 +17°C° 0 mm 3 mps 749 mmHg 55%
21:00 +14°C° 0 mm 2 mps 750 mmHg 61%
22:00 +14°C° 0 mm 2 mps 750 mmHg 63%
23:00 +13°C° 0 mm 2 mps 750 mmHg 65%

Tomorrow, 28 July, Wednesday

Time Temperature Precipitation Wind Pressure Humidity
00:00 +12°C° 0 mm 1 mps 750 mmHg 68%
01:00 +12°C° 0 mm 1 mps 750 mmHg 69%
02:00 +12°C° 0 mm 2 mps 750 mmHg 71%
03:00 +10°C° 0 mm 2 mps 750 mmHg 73%
04:00 +12°C° 0 mm 2 mps 750 mmHg 70%
05:00 +13°C° 0 mm 2 mps 750 mmHg 67%
06:00 +14°C° 0 mm 2 mps 750 mmHg 64%
07:00 +16°C° 0 mm 3 mps 750 mmHg 58%
08:00 +18°C° 0 mm 3 mps 750 mmHg 51%
09:00 +20°C° 0 mm 4 mps 750 mmHg 44%
10:00 +21°C° 0 mm 4 mps 750 mmHg 41%
11:00 +22°C° 0 mm 4 mps 749 mmHg 38%
12:00 +22°C° 0 mm 4 mps 749 mmHg 35%
13:00 +23°C° 0 mm 4 mps 749 mmHg 34%
14:00 +23°C° 0 mm 4 mps 749 mmHg 33%
15:00 +25°C° 0 mm 4 mps 749 mmHg 33%
16:00 +24°C° 0 mm 3 mps 748 mmHg 37%
17:00 +23°C° 0 mm 2 mps 748 mmHg 41%
18:00 +23°C° 0 mm 2 mps 748 mmHg 46%
19:00 +20°C° 0 mm 2 mps 748 mmHg 49%
20:00 +18°C° 0 mm 2 mps 748 mmHg 52%
21:00 +16°C° 0 mm 2 mps 747 mmHg 55%
22:00 +15°C° 0 mm 2 mps 747 mmHg 55%
23:00 +14°C° 0 mm 3 mps 747 mmHg 56%

Day after tomorrow, 29 July, Thursday

Time Temperature Precipitation Wind Pressure Humidity
00:00 +13°C° 0 mm 3 mps 747 mmHg 56%
01:00 +13°C° 0 mm 3 mps 747 mmHg 58%
02:00 +13°C° 0 mm 3 mps 746 mmHg 59%
03:00 +13°C° 0 mm 3 mps 746 mmHg 60%
04:00 +14°C° 0 mm 3 mps 746 mmHg 62%
05:00 +16°C° 0 mm 3 mps 745 mmHg 64%
06:00 +17°C° 0 mm 3 mps 745 mmHg 66%
07:00 +20°C° 0 mm 3 mps 745 mmHg 62%
08:00 +22°C° 0 mm 4 mps 744 mmHg 58%
09:00 +25°C° 0 mm 5 mps 744 mmHg 55%
10:00 +23°C° 0 mm 5 mps 744 mmHg 59%
11:00 +22°C° 0 mm 5 mps 743 mmHg 64%
12:00 +22°C° 0 mm 6 mps 743 mmHg 69%
13:00 +21°C° 1.2 mm 5 mps 743 mmHg 78%
14:00 +19°C° 1.2 mm 4 mps 742 mmHg 87%
15:00 +18°C° 1.2 mm 3 mps 742 mmHg 96%
16:00 +18°C° 0.4 mm 3 mps 742 mmHg 96%
17:00 +18°C° 0.4 mm 3 mps 741 mmHg 96%
18:00 +18°C° 0.4 mm 3 mps 740 mmHg 97%
19:00 +18°C° 0 mm 3 mps 740 mmHg 97%
20:00 +18°C° 0 mm 3 mps 740 mmHg 97%
21:00 +18°C° 0 mm 3 mps 740 mmHg 97%
22:00 +17°C° 0 mm 3 mps 740 mmHg 97%
23:00 +17°C° 0 mm 3 mps 740 mmHg 97%

30 July, Friday

Time Temperature Precipitation Wind Pressure Humidity
00:00 +17°C° 0 mm 3 mps 740 mmHg 97%
01:00 +16°C° 0 mm 3 mps 740 mmHg 97%
02:00 +16°C° 0 mm 3 mps 739 mmHg 97%
03:00 +15°C° 0 mm 4 mps 739 mmHg 97%
04:00 +17°C° 0 mm 4 mps 739 mmHg 95%
05:00 +18°C° 0 mm 4 mps 739 mmHg 93%
06:00 +19°C° 0 mm 5 mps 739 mmHg 92%
07:00 +20°C° 0 mm 5 mps 740 mmHg 85%
08:00 +21°C° 0 mm 6 mps 740 mmHg 78%
09:00 +22°C° 0 mm 6 mps 740 mmHg 72%
10:00 +23°C° 0 mm 6 mps 741 mmHg 65%
11:00 +24°C° 0 mm 6 mps 741 mmHg 59%
12:00 +26°C° 0 mm 5 mps 741 mmHg 52%
13:00 +27°C° 0 mm 5 mps 741 mmHg 49%
14:00 +28°C° 0 mm 5 mps 741 mmHg 46%
15:00 +28°C° 0 mm 6 mps 742 mmHg 43%
16:00 +27°C° 0 mm 4 mps 742 mmHg 49%
17:00 +26°C° 0 mm 3 mps 742 mmHg 55%
18:00 +25°C° 0 mm 2 mps 742 mmHg 61%
19:00 +24°C° 0 mm 2 mps 742 mmHg 63%
20:00 +22°C° 0 mm 3 mps 742 mmHg 66%
21:00 +21°C° 0 mm 3 mps 742 mmHg 68%
22:00 +21°C° 0 mm 3 mps 742 mmHg 68%
23:00 +21°C° 0 mm 3 mps 742 mmHg 69%

31 July, Saturday

Time Temperature Precipitation Wind Pressure Humidity
00:00 +20°C° 0 mm 3 mps 742 mmHg 69%
01:00 +20°C° 0 mm 3 mps 742 mmHg 70%
02:00 +19°C° 0 mm 3 mps 742 mmHg 71%
03:00 +19°C° 0 mm 3 mps 742 mmHg 72%
04:00 +19°C° 0 mm 3 mps 742 mmHg 74%
05:00 +20°C° 0 mm 3 mps 742 mmHg 76%
06:00 +20°C° 0 mm 3 mps 742 mmHg 77%
07:00 +21°C° 0.1 mm 3 mps 742 mmHg 74%
08:00 +22°C° 0.1 mm 4 mps 742 mmHg 71%
09:00 +23°C° 0.1 mm 4 mps 743 mmHg 67%
10:00 +26°C° 0 mm 5 mps 742 mmHg 61%
11:00 +28°C° 0 mm 5 mps 742 mmHg 54%
12:00 +30°C° 0 mm 6 mps 742 mmHg 47%
13:00 +29°C° 0 mm 6 mps 742 mmHg 48%
14:00 +29°C° 0 mm 6 mps 742 mmHg 49%
15:00 +29°C° 0 mm 7 mps 742 mmHg 50%
16:00 +28°C° 0 mm 6 mps 742 mmHg 49%
17:00 +28°C° 0 mm 6 mps 742 mmHg 47%
18:00 +28°C° 0 mm 5 mps 742 mmHg 46%
19:00 +26°C° 0 mm 5 mps 742 mmHg 53%
20:00 +23°C° 0 mm 4 mps 743 mmHg 59%
21:00 +21°C° 0 mm 3 mps 743 mmHg 66%
22:00 +20°C° 0 mm 3 mps 743 mmHg 70%
23:00 +19°C° 0 mm 3 mps 743 mmHg 73%

1 August, Sunday

Time Temperature Precipitation Wind Pressure Humidity
00:00 +18°C° 0 mm 3 mps 743 mmHg 77%
01:00 +18°C° 0 mm 3 mps 743 mmHg 79%
02:00 +17°C° 0 mm 3 mps 744 mmHg 81%
03:00 +17°C° 0 mm 3 mps 744 mmHg 84%
04:00 +18°C° 0 mm 3 mps 744 mmHg 81%
05:00 +19°C° 0 mm 3 mps 745 mmHg 78%
06:00 +20°C° 0 mm 3 mps 745 mmHg 75%
07:00 +22°C° 0 mm 3 mps 745 mmHg 68%
08:00 +25°C° 0 mm 3 mps 745 mmHg 62%
09:00 +26°C° 0 mm 3 mps 745 mmHg 55%
10:00 +28°C° 0 mm 4 mps 745 mmHg 51%
11:00 +29°C° 0 mm 4 mps 745 mmHg 46%
12:00 +30°C° 0 mm 4 mps 745 mmHg 42%
13:00 +30°C° 0 mm 4 mps 745 mmHg 44%
14:00 +30°C° 0 mm 3 mps 745 mmHg 45%
15:00 +30°C° 0 mm 3 mps 744 mmHg 47%
16:00 +29°C° 0 mm 3 mps 744 mmHg 52%
17:00 +28°C° 0 mm 3 mps 744 mmHg 56%
18:00 +27°C° 0 mm 2 mps 744 mmHg 61%
19:00 +25°C° 0.3 mm 3 mps 743 mmHg 68%
20:00 +24°C° 0.3 mm 3 mps 743 mmHg 74%
21:00 +21°C° 0.3 mm 3 mps 743 mmHg 81%
22:00 +21°C° 0 mm 3 mps 743 mmHg 80%
23:00 +21°C° 0 mm 3 mps 742 mmHg 78%
Show more

We Need Your Consent

Meteoprog and our Service Providers may store and access personal data such as cookies, device identifiers or other similar technologies on your device and process such data to personalise content and ads, as well as provide social media features and to analyse the traffic.

  • Store and/or access information on your device

    Cookies, device identifiers or other information can be stored or accessed on your device for the purposes indicated above.

  • Personalised ads and content, ad and content measurement, audience insights, and products development

    Ads and content can be personalised based on a profile. More data can be added to better personalise ads and content. Ad and content performance can be measured. Insights about the audience who saw the ads and content can be derived. Such data can be used to develop or improve user’s experience, systems and software.

By clicking ‘I Agree’ you will allow the use of indicated cookies, device identifiers, web beacons or other similar technologies. Your settings can be changed in the browser on your device.

For certain purposes, legitimate interests may be relied on, rather than consent. You can read more about this in our Privacy and Cookie Policy.